RH
100 100 100 100 100 100 100 100 99 97 95 100 100 93 98 100 100 96 100 92 88 100 100 100 87 81 60 48 63 100 100 90 100 91 94 71 44 58 33 33 29 28 28 21 22 24 27
100 100 100 100 100 100 100 100 94 92 100 96 83 100 92 100 100 88 96 100 91 100 100 100 87 83 86 56 70 90 100 77 96 100 64 83 50 96 46 38 34 27 28 26 23 23 23
100 97 97 100 100 100 96 100 100 97 93 100 96 100 98 94 100 100 92 83 100 95 87 100 99 70 100 77 60 81 99 100 100 98 68 97 56 67 64 48 52 32 28 31 28 26 22
97 100 100 82 96 100 100 100 100 100 98 88 86 100 100 89 87 99 100 63 100 100 83 100 100 88 94 100 67 97 100 100 100 100 97 100 90 63 70 76 74 56 34 32 31 27 25
100 100 100 100 79 80 94 100 100 100 100 100 66 79 90 74 100 87 88 87 84 100 91 96 100 100 78 100 74 94 66 100 100 100 94 100 100 74 69 83 83 73 37 32 30 34 28
100 100 100 100 100 100 95 100 100 100 100 100 92 92 89 99 69 99 87 96 100 97 100 97 88 90 81 100 67 95 90 76 100 100 99 100 100 99 75 74 86 68 50 34 32 37 33
100 100 100 100 100 100 100 100 100 100 88 100 100 100 88 85 91 58 96 79 100 100 95 96 76 100 74 100 100 100 68 63 75 100 100 100 100 100 89 100 93 70 67 46 30 31 41
85 88 100 97 100 100 100 100 100 100 100 92 100 100 100 100 94 81 73 75 89 100 100 99 88 100 99 89 100 100 92 84 58 87 100 100 100 100 97 100 92 85 94 66 39 30 35
12 58 76 90 100 96 100 100 100 100 100 100 91 100 97 98 100 91 78 100 66 61 71 100 99 100 94 68 100 100 100 79 65 88 91 100 100 99 96 100 100 100 89 74 66 36 40
8 8 11 56 70 96 99 100 100 100 100 100 100 96 94 100 100 100 100 100 100 100 68 100 73 100 96 53 99 100 97 97 73 99 79 100 100 92 100 100 100 100 87 90 75 52 52
6 7 7 8 64 74 76 100 96 100 100 100 100 100 89 79 100 100 100 100 94 100 79 95 99 90 92 80 100 100 100 97 85 73 85 90 100 100 100 100 100 94 96 97 85 65 58
5 5 6 6 7 28 64 78 87 100 100 100 100 100 100 100 100 100 100 100 99 97 79 90 100 100 96 74 99 100 100 99 98 82 82 92 100 100 100 100 100 100 98 80 90 71 70
5 4 5 5 6 7 7 67 95 80 100 100 100 100 100 100 100 100 100 100 100 84 97 89 100 100 100 82 82 100 100 100 100 99 99 97 100 100 100 100 100 100 94 88 86 77 67
4 4 4 5 5 6 7 8 16 92 91 100 100 100 100 100 100 100 100 100 78 76 94 100 100 99 82 87 98 100 100 100 100 100 100 100 100 100 100 100 100 100 100 99 70 84 72
5 4 4 4 5 5 6 7 8 9 54 100 100 100 100 100 100 100 100 95 76 88 100 100 96 98 100 99 100 100 100 100 100 100 100 90 80 99 100 100 100 100 99 88 76 82 78
4 4 4 4 5 5 6 6 7 9 14 76 100 100 100 100 100 100 100 80 89 93 100 100 99 100 100 100 100 100 100 100 100 100 100 100 92 100 100 100 100 100 93 76 78 85 98
3 4 4 4 5 5 6 6 7 8 10 11 98 100 100 100 100 100 92 88 100 99 100 98 100 100 100 100 100 100 100 100 100 100 100 100 96 100 86 96 100 100 96 94 82 70 84
3 3 4 4 5 5 6 7 7 8 10 12 12 98 100 100 100 99 94 100 100 100 100 99 100 100 100 100 100 100 100 100 100 100 100 100 95 98 100 91 100 100 100 90 64 92 93
3 3 3 4 4 5 6 6 7 8 9 14 14 18 80 100 100 100 100 100 100 100 100 99 97 100 100 100 100 100 100 100 100 100 100 100 91 94 97 98 100 100 100 84 90 86 79
2 3 4 4 4 5 6 6 7 8 9 12 18 24 31 55 95 100 100 100 100 100 100 100 100 99 86 100 100 100 100 100 100 100 100 100 100 96 94 100 100 100 100 98 90 62 72
2 3 4 4 4 5 6 7 7 8 9 11 18 16 24 20 25 55 100 100 100 100 100 100 100 100 100 100 100 100 100 100 100 100 100 100 100 100 99 78 89 100 100 100 90 92 84
2 2 3 4 5 5 6 7 8 9 10 11 12 13 14 10 56 63 93 100 100 100 100 100 100 100 100 100 100 100 100 100 100 100 100 99 88 100 96 100 100 97 100 89 94 98 72
2 2 3 4 5 5 6 7 9 10 9 10 10 12 16 15 27 29 36 100 100 100 100 100 100 100 100 100 100 100 100 100 100 89 80 92 100 100 100 100 100 86 100 100 81 76 96
2 2 3 4 5 6 6 6 8 9 8 10 8 11 12 17 24 32 46 83 100 100 100 100 100 100 100 100 100 100 100 100 100 98 100 98 100 99 88 92 78 97 84 92 100 100 100
2 2 3 4 5 6 6 6 7 8 10 11 9 10 14 21 32 55 59 60 100 100 100 100 100 100 100 100 100 100 100 96 98 98 90 78 74 76 76 71 64 63 100 73 59 76 100
2 3 4 5 5 6 7 8 9 10 13 12 11 12 14 17 15 78 95 67 74 100 100 100 100 100 100 100 100 92 100 100 100 100 100 100 100 100 100 90 76 84 80 93 49 67 99
3 3 4 6 6 8 8 9 9 11 14 14 13 14 15 22 30 44 50 77 99 100 100 100 100 100 100 100 100 100 91 91 87 100 100 100 100 100 96 91 81 86 65 76 96 98 62
4 4 6 7 8 9 11 10 11 12 13 13 13 14 16 22 36 47 64 78 80 98 100 100 100 100 100 100 84 80 86 92 84 83 100 100 100 100 100 100 93 100 100 100 89 72 62
5 6 7 9 10 12 12 12 12 13 14 15 16 15 16 24 29 43 89 80 78 96 100 100 100 100 100 100 100 100 86 89 83 84 100 89 95 99 90 78 94 100 100 100 98 100 86
Wind_Speed
121 117 111 110 110 107 107 103 99 95 88 87 81 82 79 73 71 72 69 62 64 59 56 49 48 56 35 40 39 38 46 48 43 44 43 45 46 46 49 42 47 47 45 37 30 30 30
126 120 115 115 114 113 110 107 104 99 95 88 83 83 82 78 76 73 69 66 67 61 63 51 51 53 45 39 40 40 44 47 45 43 52 46 48 41 51 46 42 48 47 45 35 31 33
136 129 125 121 120 116 117 115 109 105 101 103 97 92 90 85 82 80 76 75 74 66 64 56 59 56 49 42 40 43 44 49 48 46 54 43 44 47 50 46 42 48 51 47 44 36 33
134 138 135 128 128 125 123 117 115 112 109 102 101 97 97 91 84 78 78 77 79 71 66 63 57 54 64 52 46 45 44 44 48 51 55 44 43 48 51 51 43 50 52 47 45 40 34
138 138 139 135 136 131 128 127 123 119 114 110 105 100 97 93 92 88 81 75 74 72 70 61 64 58 63 65 56 51 50 46 54 48 52 48 46 52 50 53 50 49 54 47 46 44 37
149 152 147 143 139 134 134 135 129 127 119 116 112 108 101 101 96 91 90 87 87 81 78 74 76 63 63 61 61 55 47 50 42 48 54 46 48 50 51 55 53 50 55 52 49 47 42
151 154 154 150 147 142 139 138 138 131 125 121 116 113 109 105 100 96 92 90 92 90 83 79 79 66 61 59 57 56 50 52 46 56 52 51 53 52 53 54 52 52 53 55 53 48 47
159 155 151 155 148 152 147 141 138 136 127 120 118 116 114 108 103 99 97 98 96 89 88 85 78 70 63 64 53 58 56 50 57 53 54 52 56 55 52 52 52 53 51 55 54 54 49
138 158 158 156 155 153 152 148 142 136 132 128 127 122 116 113 109 103 101 100 103 101 98 88 84 78 82 64 64 66 67 60 52 54 50 54 56 53 51 49 51 55 54 53 55 56 56
125 132 143 161 159 158 156 150 151 144 136 130 127 124 125 116 107 105 106 110 109 104 99 86 87 85 84 77 69 74 69 62 59 57 52 56 63 57 50 50 51 53 56 53 54 55 59
119 125 130 135 158 155 159 159 159 154 151 150 131 127 128 123 119 111 109 118 114 108 104 88 96 81 80 76 76 75 74 67 65 59 53 60 60 60 57 57 57 57 55 52 55 53 54
118 121 125 128 133 147 162 163 157 156 153 155 151 144 129 125 117 113 117 121 112 113 106 93 91 87 82 78 77 75 79 69 67 64 60 64 62 63 59 58 58 57 56 57 54 53 52
117 118 120 124 127 132 137 158 163 153 151 149 151 145 137 123 108 123 125 124 125 128 96 97 91 89 86 86 83 77 76 74 68 69 64 65 65 66 65 61 57 56 55 53 53 54 53
112 113 115 117 122 125 128 133 144 161 155 149 147 144 145 136 118 120 121 126 136 121 100 94 96 94 94 86 83 80 79 79 76 73 71 68 69 71 70 63 60 57 53 56 54 51 54
104 107 108 110 114 118 121 125 128 134 150 149 145 144 144 131 120 123 118 126 128 95 92 97 101 96 89 84 82 84 79 75 79 82 79 75 71 73 68 67 66 63 59 58 54 54 55
95 97 99 101 105 110 115 118 121 123 129 146 148 148 144 135 128 122 120 129 103 91 94 98 106 96 87 87 85 85 84 80 85 81 80 79 74 75 67 68 65 67 67 59 56 53 54
87 89 91 94 97 101 106 112 114 118 119 125 146 148 147 137 134 132 133 110 91 91 95 102 105 95 88 86 83 85 86 85 84 83 82 79 75 75 71 69 65 65 65 63 59 57 56
78 82 85 86 88 93 99 103 110 113 116 119 126 146 144 139 150 145 135 87 85 92 97 103 103 99 93 88 86 86 87 85 85 85 80 80 80 77 75 75 73 70 65 64 63 56 55
73 76 79 82 85 88 93 100 106 111 114 114 115 127 141 140 151 146 116 109 97 94 97 100 101 91 87 89 84 85 84 90 92 86 82 80 78 79 71 74 72 71 70 66 60 55 56
67 71 74 77 81 84 89 96 104 108 111 115 113 125 128 142 142 140 124 109 99 91 85 87 87 92 88 88 87 84 88 92 90 82 77 82 80 76 74 72 77 75 71 66 61 67 63
61 69 72 74 78 81 87 95 102 107 110 116 122 125 128 143 148 133 113 101 103 103 88 83 81 74 78 84 81 79 85 88 86 82 80 84 85 85 77 80 84 76 73 69 72 67 67
54 63 69 72 75 80 84 93 99 105 111 118 124 123 122 113 117 116 109 106 98 94 95 89 85 86 84 82 82 80 84 87 86 82 84 87 88 89 78 81 77 70 70 71 71 69 76
49 57 66 70 74 77 81 87 96 104 110 114 118 113 111 105 115 118 113 99 77 78 82 83 90 96 92 79 72 74 80 80 80 80 81 83 86 85 74 84 85 75 68 73 76 79 74
44 52 59 67 72 76 78 83 90 100 103 108 109 107 101 96 102 101 100 101 98 91 84 86 91 89 87 86 83 80 80 82 80 75 78 79 83 87 83 88 89 72 77 78 78 76 78
42 49 56 65 70 74 75 76 80 82 87 97 95 94 97 98 98 92 107 105 100 100 98 91 91 93 98 98 93 89 87 81 75 75 80 84 88 89 90 92 87 74 76 79 83 72 82
38 45 54 62 67 67 69 71 74 79 83 89 84 89 95 96 79 83 85 107 108 103 109 103 101 99 100 102 100 93 89 85 83 84 82 83 87 91 90 92 88 66 74 76 82 76 87
36 44 52 60 64 65 68 72 73 77 82 85 87 91 91 89 78 90 94 98 100 104 103 90 97 105 109 107 105 105 104 97 96 92 86 87 91 93 92 94 84 76 80 78 78 79 85
34 43 52 59 61 61 64 66 70 74 78 79 84 90 92 87 80 84 90 101 104 104 103 99 103 103 93 97 101 97 94 96 98 95 96 97 94 91 91 92 85 79 79 77 75 79 76
32 43 54 61 62 62 63 66 70 70 72 73 79 83 85 87 83 79 88 99 106 109 103 103 94 87 91 91 93 92 95 95 92 90 97 99 97 96 95 90 87 88 80 78 79 78 80
Wind_Direction
244 246 247 249 248 246 247 246 246 246 248 249 247 249 250 254 258 262 262 263 269 271 273 273 283 290 286 299 293 298 299 305 305 314 319 325 330 333 340 345 350 350 346 346 336 326 325
244 245 246 249 249 249 249 248 247 248 246 243 245 249 247 252 257 254 259 262 262 267 269 270 281 283 281 290 294 292 291 298 303 306 319 318 321 327 331 337 342 349 349 345 342 332 322
240 241 245 246 248 250 248 248 248 246 247 247 248 249 248 248 252 255 253 260 265 261 261 268 277 276 281 285 289 287 289 293 298 303 312 314 321 322 327 328 331 340 346 343 341 334 327
239 240 241 245 246 247 248 248 247 248 247 248 246 247 249 247 249 254 252 253 267 258 261 259 267 273 274 278 291 292 288 285 291 300 304 302 318 322 321 319 321 329 339 341 341 336 326
238 239 239 240 246 246 247 246 247 248 248 248 247 245 247 249 248 249 251 251 259 261 259 263 269 270 271 274 279 276 283 282 293 301 299 294 308 310 317 314 316 323 329 337 340 338 330
241 242 239 238 242 242 245 245 244 246 247 248 245 244 244 245 249 249 247 252 256 255 259 263 267 265 268 271 276 270 275 286 295 292 294 296 300 307 310 309 310 318 322 329 336 337 333
241 240 239 237 239 240 241 243 243 242 244 245 245 245 246 246 244 247 249 251 253 254 258 261 265 257 262 265 272 276 268 282 281 287 285 289 295 299 305 304 306 313 318 323 330 335 335
239 240 238 237 236 239 237 239 239 241 241 241 244 245 246 245 246 246 247 252 250 251 255 257 254 254 259 262 267 269 267 271 282 280 287 287 289 294 301 299 302 308 315 315 322 330 331
239 238 238 236 235 234 233 237 236 237 240 241 242 242 245 246 244 250 249 249 251 252 253 253 253 252 259 256 263 264 266 272 273 276 280 284 283 295 294 294 296 303 312 311 313 322 325
240 239 237 235 237 235 235 233 232 235 236 239 240 243 246 244 246 248 246 247 249 249 249 248 252 249 255 255 261 263 268 266 273 268 272 285 285 284 288 294 298 301 305 304 307 314 321
240 239 238 236 234 235 235 234 235 237 238 238 236 242 245 246 244 245 243 245 247 246 249 246 251 251 253 255 254 258 265 263 266 263 267 276 281 284 286 286 292 297 298 297 302 309 316
241 238 237 237 235 233 234 233 234 235 237 238 237 237 243 244 241 241 242 244 243 245 251 250 248 253 253 255 255 256 262 262 263 265 266 269 275 281 281 285 290 292 293 295 298 306 311
241 238 236 235 235 235 233 233 233 234 233 235 237 237 239 241 238 241 241 241 242 248 249 250 250 250 251 253 253 253 258 262 261 264 262 266 271 276 281 284 285 287 286 289 295 303 306
241 239 236 235 233 232 233 233 232 232 232 233 235 234 237 240 238 238 239 241 247 247 247 247 245 247 252 251 254 254 256 257 260 263 262 266 268 272 277 279 281 281 281 283 295 297 302
240 238 237 234 233 231 230 231 232 230 231 230 231 231 234 233 236 238 236 240 245 247 243 243 246 245 247 249 249 254 254 252 258 264 263 265 267 269 273 274 278 277 276 285 290 294 299
238 237 235 233 230 229 228 227 228 230 227 228 227 231 231 231 231 233 233 241 242 241 239 241 244 241 240 245 249 253 254 254 258 260 261 265 264 265 270 273 276 275 279 281 285 292 297
237 235 233 231 228 226 224 224 224 226 226 227 224 226 228 229 230 231 234 239 238 236 238 239 241 240 238 242 247 249 253 256 259 260 262 261 264 267 271 271 271 271 277 281 285 290 292
235 233 231 229 226 222 221 219 220 221 222 224 225 224 226 225 228 233 235 230 234 233 232 235 237 244 244 243 244 248 251 253 254 258 259 261 266 270 270 270 271 272 272 275 288 290 290
232 229 228 226 224 220 217 215 216 217 220 220 222 224 224 225 229 231 226 227 229 230 234 236 241 240 243 244 242 243 247 252 253 254 258 261 265 266 265 270 271 271 272 280 284 285 286
229 225 223 222 220 218 215 212 213 215 217 218 219 222 221 225 227 227 223 223 225 228 227 231 235 238 242 244 245 244 244 246 248 253 258 262 263 260 262 262 271 275 273 278 279 285 284
225 220 218 217 215 214 212 210 210 212 213 215 217 221 222 224 226 227 222 222 224 226 226 230 235 238 239 241 241 241 242 243 247 254 256 257 258 260 260 265 269 273 270 276 284 286 283
222 219 215 213 211 211 210 208 208 211 212 214 218 220 224 226 226 225 216 220 221 226 231 234 237 237 237 241 246 245 245 249 249 248 252 259 259 260 262 265 266 265 272 277 275 278 282
219 216 212 210 207 209 209 208 208 210 212 214 218 220 223 221 224 226 220 211 215 225 228 228 230 233 235 233 232 238 243 246 248 252 254 253 253 254 257 264 267 275 272 269 275 282 276
214 211 209 207 205 207 208 208 209 211 213 214 218 219 222 222 223 225 221 214 219 221 219 224 225 227 229 227 229 237 245 249 250 250 251 251 253 256 260 263 268 268 270 277 275 274 273
211 206 205 203 203 206 207 207 209 213 214 217 217 218 217 221 221 216 219 212 211 219 219 224 229 229 228 229 231 234 239 244 250 252 256 256 258 261 261 264 267 271 272 271 274 275 272
204 202 200 199 200 202 204 205 206 209 211 216 214 216 218 223 227 217 215 214 216 220 224 227 233 235 239 237 235 237 241 245 250 257 259 258 257 257 262 266 269 272 273 274 277 271 271
199 197 195 194 195 197 200 203 204 205 209 211 210 213 216 218 217 223 223 217 218 221 223 223 230 237 241 245 245 244 247 250 251 251 251 256 261 265 267 269 269 273 278 270 268 268 274
195 194 191 190 192 194 198 201 203 206 209 211 210 211 213 214 216 221 222 220 219 223 227 230 234 236 239 249 249 249 248 249 248 249 251 254 258 265 267 272 278 269 263 266 271 277 274
195 192 189 189 191 193 196 199 202 206 208 208 209 213 214 213 216 219 221 221 220 224 226 230 233 237 242 244 246 247 248 249 252 252 254 257 261 264 266 271 268 266 264 266 272 270 272